Back to catalog

COSMOS 2251 DEB

AliveLEO
NORAD 33908·DEBRIS·🇷🇺 Russia

Launched Jun 16, 1993 from Plesetsk Cosmodrome

Loading…

Next Passes (next 24 hours)

TLE

FreshSource: Space-Track

Epoch: Sep 14, 2026, 11:01 UTC

1 33908U 93036DM  26257.45906006  .00001858  00000-0  86766-3 0  9994
2 33908  73.8340  75.6408 0219928  49.5648 312.4441 14.09116237893550

Track COSMOS 2251 DEB in real time with AllMySat

Download on the App Store